This is the latest recevied weather packets stored in our database for station/object K4DFD-13. If no packets are shown the sender has not sent any weather packets the latest 10 day(s).
| Time | Temp. | Humidity | Pressure | Rain* | Wind** | Luminosity | Snow |
|---|---|---|---|---|---|---|---|
| 1777423051 | 20° C | 65% | 1016.2 hPa | 0 mm | - | - | - |
| 1777422751 | 20° C | 64% | 1016.2 hPa | 0 mm | - | - | - |
| 1777422450 | 20.56° C | 64% | 1016.1 hPa | 0 mm | - | - | - |
| 1777422150 | 20.56° C | 64% | 1016.2 hPa | 0 mm | - | - | - |
| 1777421849 | 20.56° C | 63% | 1016.3 hPa | 0 mm | - | - | - |
| 1777421549 | 20.56° C | 63% | 1016.3 hPa | 0 mm | - | - | - |
| 1777421249 | 21.11° C | 62% | 1016.3 hPa | 0 mm | - | - | - |
| 1777420949 | 21.67° C | 61% | 1015.8 hPa | 0 mm | - | - | - |
| 1777420648 | 21.67° C | 60% | 1016 hPa | 0 mm | - | - | - |
| 1777420348 | 21.67° C | 59% | 1015.8 hPa | 0 mm | - | - | - |
| 1777420048 | 22.22° C | 59% | 1015.5 hPa | 0 mm | - | - | - |
| 1777419747 | 22.22° C | 58% | 1015.3 hPa | 0 mm | - | - | - |
| 1777419447 | 22.22° C | 57% | 1015.1 hPa | 0 mm | - | - | - |
| 1777419146 | 22.78° C | 56% | 1015 hPa | 0 mm | - | - | - |
| 1777418846 | 23.33° C | 55% | 1014.7 hPa | 0 mm | - | - | - |
| 1777418265 | 23.33° C | 55% | 1014.7 hPa | 0 mm | - | - | - |
| 1777417965 | 23.89° C | 54% | 1015 hPa | 0 mm | - | - | - |
| 1777417665 | 23.89° C | 53% | 1015 hPa | 0 mm | - | - | - |
| 1777417364 | 23.89° C | 54% | 1015.2 hPa | 0 mm | - | - | - |
| 1777417064 | 23.89° C | 53% | 1015.2 hPa | 0 mm | - | - | - |
| 1777416763 | 23.33° C | 54% | 1015.2 hPa | 0 mm | - | - | - |
| 1777416463 | 23.33° C | 54% | 1015.4 hPa | 0 mm | - | - | - |
| 1777416163 | 23.33° C | 53% | 1015.6 hPa | 0 mm | - | - | - |
| 1777415862 | 23.33° C | 54% | 1015.6 hPa | 0 mm | - | - | - |
| 1777415562 | 23.33° C | 53% | 1015.6 hPa | 0 mm | - | - | - |
* Rain latest hour (hover to see other rain measurements)
** Current wind speed in m/s (hover to see current wind gust speed)